Tracking 29487 objects as of 11-Sep-2024
HD Live streaming from Space Station
objects crossing your sky now

METEOR 2-8 DEB

Track METEOR 2-8 DEB now!
10-day predictions


NORAD ID: 36323
Int'l Code: 1982-025H
Perigee: 824.7 km
Apogee: 847.7 km
Inclination: 82.5 °
Period: 101.5 minutes
Semi major axis: 7207 km
RCS: 0.0079 m2 (small)
Launch date: March 25, 1982
Source: Commonwealth of Independent States (former USSR) (CIS)
Launch site: PLESETSK MISSILE AND SPACE COMPLEX (PKMTR)

Note: This is SATELLITE DEBRIS
Your satellite tracking list
Your tracking list is empty




NASA's NSSDC Master Catalog

Two Line Element Set (TLE):
1 36323U 82025H   24254.16708017  .00016356  00000-0  78250-2 0  9996
2 36323  82.5352  50.6641 0015921 226.1342 133.8523 14.18905271806719
Source of the keplerian elements: AFSPC